FW1299 Weather Reports


time (UTC)temp
C
wind
direction
speed
KPH
gust
KPH
rain 1hr
cm
rain 24hr
cm
rain mn
cm
humidity
%
barometer
mb
20260509040429 11 246 0.0 0.0 0.00 0.00 0.00 85 1012.8
20260509035426 11 239 0.0 0.0 0.00 0.00 0.00 84 1012.7
20260509033419 11 239 0.0 0.0 0.00 0.00 0.00 85 1012.9
20260509032421 12 239 0.0 0.0 0.00 0.00 0.00 84 1012.9
20260509030418 12 239 0.0 0.0 0.00 0.00 0.00 83 1012.8
20260509025420 12 239 0.0 0.0 0.00 0.00 0.00 83 1012.8
20260509024415 12 239 0.0 0.0 0.00 0.00 0.00 84 1012.9
20260509022412 12 239 0.0 0.0 0.00 0.00 0.00 84 1013.0
20260509020412 12 285 0.0 0.0 0.00 0.00 0.00 83 1012.8
20260509015413 12 285 0.0 0.0 0.00 0.00 0.00 80 1012.8
20260509014413 12 285 0.0 0.0 0.00 0.00 0.00 79 1012.7
20260509013412 12 285 0.0 0.0 0.00 0.00 0.00 78 1012.8
20260509011414 12 285 0.0 0.0 0.00 0.00 0.00 75 1012.4
20260509005407 13 285 0.0 0.0 0.00 0.00 0.00 74 1011.9
20260509004404 13 285 0.0 0.0 0.00 0.00 0.00 72 1011.7
20260509003404 13 285 0.0 0.0 0.00 0.00 0.00 71 1011.6
20260509002404 13 285 0.0 0.0 0.00 0.00 0.00 68 1011.7
20260509001405 14 285 0.0 0.0 0.00 0.00 0.00 71 1011.6
20260508235405 15 285 0.0 0.0 0.00 0.00 0.00 65 1011.5
20260508234405 15 285 0.0 0.0 0.00 0.00 0.00 63 1011.3
20260508233359 15 285 0.0 0.0 0.00 0.00 0.00 60 1011.3
20260508232358 16 285 0.0 0.0 0.00 0.00 0.00 60 1011.4
20260508231359 16 285 0.0 3.2 0.00 0.00 0.00 60 1011.3
20260508230359 16 232 0.0 4.8 0.00 0.00 0.00 58 1011.3
20260508224357 18 208 0.0 1.6 0.00 0.00 0.00 57 1011.2
20260508223358 17 156 0.0 3.2 0.00 0.00 0.00 60 1011.3
20260508222359 17 155 0.0 1.6 0.00 0.00 0.00 56 1011.3
20260508221359 17 155 0.0 1.6 0.00 0.00 0.00 57 1011.2
20260508220353 18 228 0.0 1.6 0.00 0.00 0.00 53 1011.2
20260508215351 18 115 0.0 1.6 0.00 0.00 0.00 53 1011.4
20260508213351 18 209 0.0 3.2 0.00 0.00 0.00 53 1011.3
20260508212353 18 200 1.6 6.4 0.00 0.00 0.00 51 1011.3
20260508211353 18 221 1.6 8.0 0.00 0.00 0.00 53 1011.4
20260508210353 18 184 1.6 6.4 0.00 0.00 0.00 52 1011.3
20260508205352 18 349 1.6 8.0 0.00 0.00 0.00 55 1011.4
20260508204352 17 272 1.6 12.9 0.00 0.00 0.00 52 1011.5
20260508203351 18 244 0.0 6.4 0.00 0.00 0.00 53 1011.5
20260508202353 17 321 1.6 11.3 0.00 0.00 0.00 57 1011.6
20260508201352 17 202 0.0 1.6 0.00 0.00 0.00 55 1011.7
20260508200352 17 233 1.6 6.4 0.00 0.00 0.00 54 1011.7
20260508195351 17 288 1.6 12.9 0.00 0.00 0.00 52 1011.6
20260508194350 17 295 1.6 11.3 0.00 0.00 0.00 51 1011.6
20260508192349 17 269 3.2 16.1 0.00 0.00 0.00 49 1011.6
20260508191349 16 245 3.2 19.3 0.00 0.00 0.00 47 1011.7
20260508190350 17 224 6.4 16.1 0.00 0.00 0.00 47 1011.5
20260508184349 18 213 1.6 14.5 0.00 0.00 0.00 47 1011.5
20260508183352 17 238 3.2 11.3 0.00 0.00 0.00 48 1011.7
20260508182350 17 271 4.8 14.5 0.00 0.00 0.00 48 1011.8
20260508180349 16 293 3.2 11.3 0.00 0.00 0.00 51 1011.9
20260508175349 16 271 4.8 14.5 0.00 0.00 0.00 52 1012.0
20260508174350 16 195 4.8 16.1 0.00 0.00 0.00 46 1012.2
20260508173347 17 259 6.4 17.7 0.00 0.00 0.00 52 1012.3
20260508172349 17 194 6.4 20.9 0.00 0.00 0.00 51 1012.2
20260508171341 17 221 6.4 24.1 0.00 0.00 0.00 51 1012.4
20260508170340 17 148 6.4 17.7 0.00 0.00 0.00 51 1012.4
20260508165339 17 250 6.4 20.9 0.00 0.00 0.00 53 1012.5
20260508164336 17 264 6.4 17.7 0.00 0.00 0.00 51 1012.6
20260508163335 16 233 6.4 20.9 0.00 0.00 0.00 50 1012.5
20260508162334 16 218 4.8 19.3 0.00 0.00 0.00 49 1012.9
20260508161335 16 285 3.2 9.7 0.00 0.00 0.00 57 1013.0
20260508160340 15 285 3.2 14.5 0.00 0.00 0.00 52 1013.1
20260508155335 15 249 1.6 9.7 0.00 0.00 0.00 54 1013.3
20260508154334 14 195 3.2 11.3 0.00 0.00 0.00 54 1013.3
20260508153335 14 184 4.8 17.7 0.00 0.00 0.00 53 1013.4
20260508150333 15 328 1.6 11.3 0.00 0.00 0.00 53 1013.3
20260508145336 15 158 3.2 16.1 0.00 0.00 0.00 55 1013.3
20260508144333 15 254 1.6 12.9 0.00 0.00 0.00 50 1013.4
20260508143330 15 248 0.0 1.6 0.00 0.00 0.00 56 1013.3
20260508142331 14 127 0.0 1.6 0.00 0.00 0.00 50 1013.4
20260508141331 15 247 1.6 8.0 0.00 0.00 0.00 51 1013.4
20260508135329 14 255 0.0 1.6 0.00 0.00 0.00 61 1013.3
20260508134329 13 237 0.0 6.4 0.00 0.00 0.00 61 1013.4
20260508133330 13 329 1.6 8.0 0.00 0.00 0.00 68 1013.5
20260508132328 13 188 3.2 9.7 0.00 0.00 0.00 67 1013.7
20260508131329 12 241 1.6 11.3 0.00 0.00 0.00 66 1013.7
20260508130328 12 249 1.6 9.7 0.00 0.00 0.00 75 1013.7
20260508125329 12 206 1.6 8.0 0.00 0.00 0.00 74 1013.6
20260508124328 11 240 1.6 8.0 0.00 0.00 0.00 73 1013.5
20260508123328 11 248 1.6 8.0 0.00 0.00 0.00 78 1013.4
20260508122328 11 276 1.6 8.0 0.00 0.00 0.00 77 1013.4
20260508121329 11 307 3.2 12.9 0.00 0.00 0.00 78 1013.5
20260508120328 10 162 0.0 4.8 0.00 0.00 0.00 82 1013.5
20260508115329 10 231 1.6 8.0 0.00 0.00 0.00 83 1013.6
20260508114330 9 250 1.6 4.8 0.00 0.00 0.00 85 1013.5
20260508113326 8 266 0.0 4.8 0.00 0.00 0.00 86 1013.4
20260508112325 8 216 0.0 0.0 0.00 0.00 0.00 88 1013.4
20260508111324 7 243 0.0 0.0 0.00 0.00 0.00 91 1013.4
20260508110324 6 240 0.0 0.0 0.00 0.00 0.00 94 1013.1
20260508105324 5 260 0.0 0.0 0.00 0.00 0.00 96 1013.1
20260508104324 5 245 0.0 0.0 0.00 0.00 0.00 96 1012.9
20260508103324 4 245 0.0 0.0 0.00 0.00 0.00 95 1012.9
20260508101326 4 231 0.0 0.0 0.00 0.00 0.00 94 1012.8
20260508100327 4 231 0.0 0.0 0.00 0.00 0.00 93 1012.7
20260508095325 5 231 0.0 0.0 0.00 0.00 0.00 93 1012.6
20260508094324 5 231 0.0 0.0 0.00 0.00 0.00 92 1012.7
20260508092321 5 231 0.0 0.0 0.00 0.00 0.00 91 1012.6
20260508091321 6 232 0.0 0.0 0.00 0.00 0.00 89 1012.4
20260508090320 6 232 0.0 0.0 0.00 0.00 0.00 88 1012.3
20260508084320 7 232 0.0 0.0 0.00 0.00 0.00 87 1012.2
20260508083321 7 76 0.0 0.0 0.00 0.00 0.00 86 1011.8
20260508082320 7 76 0.0 0.0 0.00 0.00 0.00 85 1011.8
20260508081320 7 18 0.0 0.0 0.00 0.03 0.00 85 1011.7
20260508075320 8 48 0.0 4.8 0.00 0.08 0.00 85 1011.9
20260508074312 8 4 0.0 3.2 0.00 0.10 0.00 84 1011.7
20260508072311 8 155 0.0 0.0 0.00 0.13 0.00 82 1011.5
20260508070312 8 14 0.0 1.6 0.00 0.18 0.00 82 1010.8
20260508065312 8 33 0.0 3.2 0.00 0.23 0.00 83 1010.7
20260508064311 8 20 0.0 0.0 0.00 0.28 0.00 83 1010.3
20260508063312 8 59 0.0 3.2 0.00 0.33 0.00 84 1010.1
20260508062311 8 335 0.0 1.6 0.00 0.38 0.00 85 1010.2
20260508061311 8 20 0.0 6.4 0.00 0.41 0.00 86 1010.2
20260508060312 8 117 1.6 8.0 0.00 0.48 0.00 88 1010.4
20260508055311 8 216 0.0 3.2 0.00 0.61 0.00 93 1010.5
20260508054311 7 113 0.0 4.8 0.00 0.76 0.00 97 1010.4
20260508053311 7 223 0.0 0.0 0.00 0.81 0.00 97 1010.0
20260508051313 6 238 0.0 0.0 0.00 1.07 0.00 96 1009.6
20260508050316 6 178 0.0 0.0 0.00 1.07 0.00 96 1009.3
20260508045309 6 178 0.0 0.0 0.00 1.07 0.00 96 1009.7
20260508044310 6 178 0.0 0.0 0.00 1.07 0.00 96 1009.7
20260508043309 6 178 0.0 0.0 0.00 1.07 0.00 96 1009.7
20260508042310 6 178 0.0 0.0 0.00 1.07 0.00 96 1009.6
20260508041309 6 178 0.0 0.0 0.00 1.07 0.00 96 1009.4